Regional Weather Roundup
Issued by NWS

Home | Current Version | Previous Version | Text Only | Print | Product List | Glossary On
Versions: 1 2 3 4 5 6 7 8 9 10 11 12 13 14 15 16 17 18 19 20 21 22 23 24 25 26 27 28 29 30 31 32 33 34 35 36 37 38 39 40 41 42 43 44 45 46 47 48 49 50
000
ASUS43 KMKX 030914
RWRWI

WISCONSIN REGIONAL WEATHER ROUNDUP
NATIONAL WEATHER SERVICE MILWAUKEE/SULLIVAN WI
400 AM CDT WED JUN 03 2015

NOTE: "FAIR" INDICATES FEW OR NO CLOUDS BELOW 12,000 FEET WITH NO
SIGNIFICANT WEATHER AND/OR OBSTRUCTIONS TO VISIBILITY.

WIZ001-002-006>008-014>016-023>028-031000-
NORTHWEST WISCONSIN

CITY           SKY/WX    TMP DP  RH WIND       PRES   REMARKS
SUPERIOR ARPT  CLOUDY    46  41  84 CALM      29.89S
ASHLAND        MOCLDY    61  49  64 S8        29.92S
HAYWARD        PTCLDY    59  49  69 S8        29.93R
SIREN          CLOUDY    64  52  64 S12       29.90R
CUMBERLAND     CLOUDY    57  50  77 SE8       29.93S
RICE LAKE      PTCLDY    58  49  71 SE7       29.95S
CHETEK         CLEAR     57  50  77 SE7       29.95S
LADYSMITH      MOCLDY    57  48  73 SE8       29.98S
EAU CLAIRE     PTCLDY    57  48  72 SE5       29.95S
MENOMONIE      CLEAR     56  51  81 E5        29.94S
NEW RICHMOND   CLOUDY    62  52  71 S13       29.91S
OSCEOLA        CLOUDY    64  54  70 S10       29.92F
$$

WIZ003>005-009-010-017-018-031000-
NORTH CENTRAL WISCONSIN

CITY           SKY/WX    TMP DP  RH WIND       PRES   REMARKS
MANITOWISH WTR MOCLDY    54  45  71 S7        29.98S
ARBOR VITAE    PTCLDY    55  45  71 S5        30.00R
WOODRUFF       PTCLDY    55  45  71 S5        30.00R
RHINELANDER    PTCLDY    53  43  68 S3        30.02R
EAGLE RIVER    PTCLDY    51  41  68 CALM      30.01R
LAND O LAKES   FAIR      54  43  67 S3        30.01R
PHILLIPS       PTCLDY    55  45  70 S8        29.97S
TOMAHAWK       PTCLDY    49  44  84 CALM      30.01S
MEDFORD        PTCLDY    52  46  80 SE9       30.00S
MERRILL        CLEAR     53  47  79 S3        30.02R
$$

WIZ029-030-035-036-043>047-031000-
CENTRAL WISCONSIN

CITY           SKY/WX    TMP DP  RH WIND       PRES   REMARKS
WAUSAU         CLEAR     53  46  77 S6        30.01S
MOSINEE        CLEAR     50  46  87 SE3       30.03R
MARSHFIELD     CLEAR     51  45  79 SE5       30.01R
STEVENS POINT  CLEAR     51  43  73 CALM      30.02F
WAUPACA        CLEAR     47  45  90 CALM      30.04S
WAUTOMA        CLEAR     46  46 100 CALM      30.05R
WISC RAPIDS    CLEAR     53  44  71 S3        30.02F
CAMP DOUGLAS   CLEAR     46  46 100 S2        30.00S
$$

WIZ011>013-019>022-031-037>040-048>050-031000-
NORTHEAST WISCONSIN

CITY           SKY/WX    TMP DP  RH WIND       PRES   REMARKS
ANTIGO         PTCLDY    48  44  84 S7        30.03R
SHAWANO        PTCLDY    50  41  71 S3        30.04F
OCONTO         CLEAR     52  47  85 S5        30.05S
STURGEON BAY   PTCLDY    48  37  66 S10       30.08S
GREEN BAY      CLEAR     50  44  80 S6        30.06S
MANITOWOC      CLEAR     47  43  86 CALM      30.08S
APPLETON       CLEAR     54  45  71 S7        30.05S
CLINTONVILLE   CLEAR     45  41  87 CALM      30.04S
OSHKOSH        CLEAR     48  44  86 S8        30.04S
$$

WIZ032>034-041-042-053>061-031000-
SOUTHWEST WISCONSIN

CITY           SKY/WX    TMP DP  RH WIND       PRES   REMARKS
LA CROSSE      CLEAR     59  50  72 SE6       29.97F
SPARTA         CLEAR     50  46  86 E5        30.00S
VIROQUA        CLEAR     56  48  73 S8        30.01S
BOSCOBEL       CLEAR     52  49  89 CALM      30.02R
PRAIRIE DU CHI CLEAR     54  49  81 CALM      30.01S
PLATTEVILLE    PTCLDY    56  49  78 SE5       30.03R
$$

WIZ056-057-062-063-064-067-068-031000-
SOUTH CENTRAL WISCONSIN

CITY           SKY/WX    TMP DP  RH WIND       PRES   REMARKS
REEDSBURG      CLEAR     54  47  78 CALM      30.02S
BARABOO/DELLS  CLEAR     53  45  75 SW5       30.03S
LONE ROCK      CLEAR     53  48  83 E7        30.03R
MINERAL POINT  PTCLDY    55  46  71 SE5       30.03R
MADISON        PTCLDY    57  48  72 S9        30.04S
MIDDLETON      PTCLDY    59  48  67 S7        30.05R
WATERTOWN      PTCLDY    50  48  93 CALM      30.06S
MONROE         PTCLDY    54  50  87 S8        30.04S
JANESVILLE     PTCLDY    54  46  76 SE7       30.05S
$$

WIZ051-052-058>065-066-070>072-031000-
SOUTHEAST WISCONSIN

CITY           SKY/WX    TMP DP  RH WIND       PRES   REMARKS
MILWAUKEE      MOCLDY    49  41  74 VRB3      30.08F
WAUKESHA       PTCLDY    46  43  87 CALM      30.09R
MILWAUKEE/TIMM CLEAR     46  41  81 CALM      30.08S
RACINE         PTCLDY    50  43  77 S5        30.09F
BURLINGTON     CLEAR     42  41  97 CALM      30.07S
KENOSHA        PTCLDY    47  43  86 CALM      30.07F
FOND DU LAC    CLEAR     51  45  79 S7        30.06R
SHEBOYGAN      PTCLDY    45  43  93 SW3       30.08S FOG
WEST BEND      PTCLDY    46  41  81 CALM      30.08S
JUNEAU         PTCLDY    51  46  83 SE7       30.07S
$$

LSZ147-162-031000-
LAKE SUPERIOR

STATION/POSITION TIME  TEMP    WIND        PRES    WAVE
                       AIR SEA DIR/SP/G            HT/PER
                 (UTC) (F)     (DEG/KT/KT) (MB)    (FT/S)
W MID LAKE BUOY  0850   45 37  160/  8/  8   N/A     1
DEVILS ISLAND    0900   61     170/  7/ 10   N/A
PORT WING        0840   43      70/  2/  4   N/A
SAXON HARBOR     0800   64     190/  2/  6   N/A
$$

LMZ867-665-643>646-031000-
LAKE MICHIGAN

STATION/POSITION TIME  TEMP    WIND        PRES    WAVE
                       AIR SEA DIR/SP/G            HT/PER
                 (UTC) (F)     (DEG/KT/KT) (MB)    (FT/S)
CHAMBERS ISLAND  0800   51     170/  3/  8   N/A
N MID LAKE BUOY  0850   43 37  170/  8/ 10   N/A     0
NORTHPORT PIER   0800   52     160/  6/ 10   N/A
SISTER BAY       0818   49     160/ 10/ 14   N/A
ALGOMA LAKESHORE 0824          210/  8/ 10   N/A
KEWAUNEE LAKESHO 0800   50     220/  6/  9   N/A
SHEBOYGAN LAKESH 0900   49     210/  7/  8   N/A
PORT WASHINGTON  0840   48     260/  1/  2   N/A
ATWATER BUOY     0800   49 46  150/  6/  8   N/A
MILWAUKEE LAKESH 0800   52     190/  5/  6   N/A
S MID LAKE BUOY  0850   46 38  150/ 10/ 10   N/A
KENOSHA   LAKESH 0900   52     190/  5/  8   N/A
$$

TC  - TEMPERATURE IN CELSIUS
VSB - VISIBILITY IN STATUTE MILES
WCI - WIND CHILL INDEX
HX  - HEAT INDEX




USA.gov is the U.S. government's official web portal to all federal, state and local government web resources and services.